Terminal Aerodrome Forecast
Issued by NWS Twin Cities, MN

Home | Current Version | Previous Version | Text Only | Print | Product List | Glossary On
Versions: 1 2 3 4 5 6 7 8 9 10 11 12 13 14 15 16 17 18 19 20
000
FTUS43 KMPX 250000 CCA
TAFSTC
TAF COR
KSTC 250016Z 2500/2524 19008KT P6SM SCT025 BKN040
     FM250200 15007KT P6SM SCT035 BKN060 PROB30 2509/2512 4SM -TSRA
      BR OVC035CB
     FM251200 15007KT P6SM SCT020 BKN035
     FM252100 30006KT P6SM BKN040=

USA.gov is the U.S. government's official web portal to all federal, state and local government web resources and services.